Location: �terpigny
(49.8910°N, 2.9249°E)
Time: 10:16:18
(UTC+00:00)

X-37B - Pass Details

Date: 24 October 2021
Orbit: 330 x 341 km, 45.0° (Epoch: 20 November)

Event Time Altitude Azimuth Distance (km) Brightness Sun altitude
Rises 17:38:04 0° 264° (W) 2,127 6.7 -10.1°
Reaches altitude 10° 17:40:18 10° 249° (WSW) 1,286 4.6 -10.4°
Maximum altitude 17:42:40 23° 194° (SSW) 785 2.4 -10.8°
Drops below altitude 10° 17:45:01 10° 139° (SE) 1,282 2.9 -11.2°
Enters shadow 17:45:16 - 137° (SE) 1,366 3.0 -11.2°
